Year,Month,Day,Hour,Minute,Value (Times are PST for temperature in C)
2010,10,11,00,00,10.30
2010,10,11,00,01,10.30
2010,10,11,00,02,10.30
2010,10,11,00,03,10.30
2010,10,11,00,04,10.30
2010,10,11,00,05,10.30
2010,10,11,00,06,10.30
2010,10,11,00,07,10.30
2010,10,11,00,08,10.30
2010,10,11,00,09,10.20
2010,10,11,00,10,10.20
2010,10,11,00,11,10.20
2010,10,11,00,12,10.20
2010,10,11,00,13,10.10
2010,10,11,00,14,10.00
2010,10,11,00,15,9.90
2010,10,11,00,16,9.90
2010,10,11,00,17,9.90
2010,10,11,00,18,10.00
2010,10,11,00,19,10.00
2010,10,11,00,20,9.90
2010,10,11,00,21,9.90
2010,10,11,00,22,9.90
2010,10,11,00,23,9.80
2010,10,11,00,24,9.80
2010,10,11,00,25,9.80
2010,10,11,00,26,9.70
2010,10,11,00,27,9.80
2010,10,11,00,28,9.80
2010,10,11,00,29,9.80
2010,10,11,00,30,9.90
2010,10,11,00,31,9.90
2010,10,11,00,32,9.90
2010,10,11,00,33,9.90
2010,10,11,00,34,9.90
2010,10,11,00,35,9.90
2010,10,11,00,36,9.90
2010,10,11,00,37,9.80
2010,10,11,00,38,9.80
2010,10,11,00,39,9.70
2010,10,11,00,40,9.70
2010,10,11,00,41,9.80
2010,10,11,00,42,9.90
2010,10,11,00,43,10.00
2010,10,11,00,44,10.10
2010,10,11,00,45,10.10
2010,10,11,00,46,10.20
2010,10,11,00,47,10.20
2010,10,11,00,48,10.20
2010,10,11,00,49,10.20
2010,10,11,00,50,10.20
2010,10,11,00,51,10.20
2010,10,11,00,52,10.20
2010,10,11,00,53,10.20
2010,10,11,00,54,10.20
2010,10,11,00,55,10.20
2010,10,11,00,56,10.20
2010,10,11,00,57,10.20
2010,10,11,00,58,10.10
2010,10,11,00,59,10.10
2010,10,11,01,00,10.10
2010,10,11,01,01,10.10
2010,10,11,01,02,10.20
2010,10,11,01,03,10.20
2010,10,11,01,04,10.30
2010,10,11,01,05,10.30
2010,10,11,01,06,10.30
2010,10,11,01,07,10.40
2010,10,11,01,08,10.50
2010,10,11,01,09,10.60
2010,10,11,01,10,10.70
2010,10,11,01,11,10.80
2010,10,11,01,12,10.90
2010,10,11,01,13,10.90
2010,10,11,01,14,10.90
2010,10,11,01,15,10.90
2010,10,11,01,16,10.80
2010,10,11,01,17,10.80
2010,10,11,01,18,10.80
2010,10,11,01,19,10.80
2010,10,11,01,20,10.80
2010,10,11,01,21,10.80
2010,10,11,01,22,10.80
2010,10,11,01,23,10.70
2010,10,11,01,24,10.70
2010,10,11,01,25,10.60
2010,10,11,01,26,10.60
2010,10,11,01,27,10.60
2010,10,11,01,28,10.60
2010,10,11,01,29,10.60
2010,10,11,01,30,10.60
2010,10,11,01,31,10.70
2010,10,11,01,32,10.70
2010,10,11,01,33,10.70
2010,10,11,01,34,10.70
2010,10,11,01,35,10.70
2010,10,11,01,36,10.70
2010,10,11,01,37,10.70
2010,10,11,01,38,10.70
2010,10,11,01,39,10.70
2010,10,11,01,40,10.70
2010,10,11,01,41,10.70
2010,10,11,01,42,10.70
2010,10,11,01,43,10.70
2010,10,11,01,44,10.70
2010,10,11,01,45,10.70
2010,10,11,01,46,10.70
2010,10,11,01,47,10.70
2010,10,11,01,48,10.70
2010,10,11,01,49,10.70
2010,10,11,01,50,10.70
2010,10,11,01,51,10.70
2010,10,11,01,52,10.70
2010,10,11,01,53,10.70
2010,10,11,01,54,10.70
2010,10,11,01,55,10.70
2010,10,11,01,56,10.70
2010,10,11,01,57,10.70
2010,10,11,01,58,10.70
2010,10,11,01,59,10.60
2010,10,11,02,00,10.60
2010,10,11,02,01,10.60
2010,10,11,02,02,10.60
2010,10,11,02,03,10.50
2010,10,11,02,04,10.50
2010,10,11,02,05,10.40
2010,10,11,02,06,10.40
2010,10,11,02,07,10.40
2010,10,11,02,08,10.40
2010,10,11,02,09,10.30
2010,10,11,02,10,10.30
2010,10,11,02,11,10.20
2010,10,11,02,12,10.20
2010,10,11,02,13,10.20
2010,10,11,02,14,10.30
2010,10,11,02,15,10.30
2010,10,11,02,16,10.30
2010,10,11,02,17,10.30
2010,10,11,02,18,10.20
2010,10,11,02,19,10.20
2010,10,11,02,20,10.20
2010,10,11,02,21,10.20
2010,10,11,02,22,10.20
2010,10,11,02,23,10.20
2010,10,11,02,24,10.10
2010,10,11,02,25,10.10
2010,10,11,02,26,10.10
2010,10,11,02,27,10.10
2010,10,11,02,28,10.00
2010,10,11,02,29,10.00
2010,10,11,02,30,10.00
2010,10,11,02,31,9.90
2010,10,11,02,32,9.80
2010,10,11,02,33,9.90
2010,10,11,02,34,9.80
2010,10,11,02,35,9.80
2010,10,11,02,36,9.80
2010,10,11,02,37,9.80
2010,10,11,02,38,9.80
2010,10,11,02,39,9.80
2010,10,11,02,40,9.80
2010,10,11,02,41,9.80
2010,10,11,02,42,9.90
2010,10,11,02,43,9.90
2010,10,11,02,44,9.80
2010,10,11,02,45,9.80
2010,10,11,02,46,9.90
2010,10,11,02,47,9.90
2010,10,11,02,48,10.00
2010,10,11,02,49,10.00
2010,10,11,02,50,10.10
2010,10,11,02,51,10.10
2010,10,11,02,52,10.10
2010,10,11,02,53,10.10
2010,10,11,02,54,10.10
2010,10,11,02,55,10.20
2010,10,11,02,56,10.20
2010,10,11,02,57,10.30
2010,10,11,02,58,10.20
2010,10,11,02,59,10.30
2010,10,11,03,00,10.30
2010,10,11,03,01,10.30
2010,10,11,03,02,10.40
2010,10,11,03,03,10.40
2010,10,11,03,04,10.40
2010,10,11,03,05,10.40
2010,10,11,03,06,10.30
2010,10,11,03,07,10.30
2010,10,11,03,08,10.30
2010,10,11,03,09,10.20
2010,10,11,03,10,10.20
2010,10,11,03,11,10.10
2010,10,11,03,12,10.10
2010,10,11,03,13,10.10
2010,10,11,03,14,10.00
2010,10,11,03,15,10.00
2010,10,11,03,16,9.90
2010,10,11,03,17,9.90
2010,10,11,03,18,9.90
2010,10,11,03,19,9.90
2010,10,11,03,20,9.90
2010,10,11,03,21,9.90
2010,10,11,03,22,9.90
2010,10,11,03,23,9.90
2010,10,11,03,24,9.90
2010,10,11,03,25,9.90
2010,10,11,03,26,9.90
2010,10,11,03,27,9.90
2010,10,11,03,28,9.90
2010,10,11,03,29,9.80
2010,10,11,03,30,9.80
2010,10,11,03,31,9.80
2010,10,11,03,32,9.70
2010,10,11,03,33,9.70
2010,10,11,03,34,9.70
2010,10,11,03,35,9.60
2010,10,11,03,36,9.60
2010,10,11,03,37,9.60
2010,10,11,03,38,9.50
2010,10,11,03,39,9.50
2010,10,11,03,40,9.40
2010,10,11,03,41,9.40
2010,10,11,03,42,9.40
2010,10,11,03,43,9.40
2010,10,11,03,44,9.40
2010,10,11,03,45,9.30
2010,10,11,03,46,9.30
2010,10,11,03,47,9.20
2010,10,11,03,48,9.20
2010,10,11,03,49,9.20
2010,10,11,03,50,9.10
2010,10,11,03,51,9.10
2010,10,11,03,52,9.10
2010,10,11,03,53,9.10
2010,10,11,03,54,9.00
2010,10,11,03,55,9.00
2010,10,11,03,56,9.00
2010,10,11,03,57,9.00
2010,10,11,03,58,9.00
2010,10,11,03,59,9.00
2010,10,11,04,00,8.90
2010,10,11,04,01,8.90
2010,10,11,04,02,8.80
2010,10,11,04,03,8.80
2010,10,11,04,04,8.80
2010,10,11,04,05,8.70
2010,10,11,04,06,8.70
2010,10,11,04,07,8.60
2010,10,11,04,08,8.60
2010,10,11,04,09,8.50
2010,10,11,04,10,8.50
2010,10,11,04,11,8.40
2010,10,11,04,12,8.40
2010,10,11,04,13,8.40
2010,10,11,04,14,8.40
2010,10,11,04,15,8.40
2010,10,11,04,16,8.30
2010,10,11,04,17,8.30
2010,10,11,04,18,8.20
2010,10,11,04,19,8.20
2010,10,11,04,20,8.20
2010,10,11,04,21,8.20
2010,10,11,04,22,8.20
2010,10,11,04,23,8.10
2010,10,11,04,24,8.10
2010,10,11,04,25,8.10
2010,10,11,04,26,8.10
2010,10,11,04,27,8.10
2010,10,11,04,28,8.10
2010,10,11,04,29,8.10
2010,10,11,04,30,8.00
2010,10,11,04,31,8.00
2010,10,11,04,32,8.00
2010,10,11,04,33,8.00
2010,10,11,04,34,8.00
2010,10,11,04,35,7.90
2010,10,11,04,36,7.90
2010,10,11,04,37,7.90
2010,10,11,04,38,7.90
2010,10,11,04,39,7.90
2010,10,11,04,40,8.00
2010,10,11,04,41,8.00
2010,10,11,04,42,8.00
2010,10,11,04,43,8.10
2010,10,11,04,44,8.10
2010,10,11,04,45,8.10
2010,10,11,04,46,8.00
2010,10,11,04,47,8.00
2010,10,11,04,48,8.00
2010,10,11,04,49,8.00
2010,10,11,04,50,8.00
2010,10,11,04,51,8.00
2010,10,11,04,52,8.00
2010,10,11,04,53,8.00
2010,10,11,04,54,8.00
2010,10,11,04,55,7.90
2010,10,11,04,56,7.90
2010,10,11,04,57,7.90
2010,10,11,04,58,7.90
2010,10,11,04,59,7.80
2010,10,11,05,00,7.80
2010,10,11,05,01,7.80
2010,10,11,05,02,7.70
2010,10,11,05,03,7.70
2010,10,11,05,04,7.70
2010,10,11,05,05,7.70
2010,10,11,05,06,7.70
2010,10,11,05,07,7.70
2010,10,11,05,08,7.70
2010,10,11,05,09,7.70
2010,10,11,05,10,7.60
2010,10,11,05,11,7.60
2010,10,11,05,12,7.60
2010,10,11,05,13,7.60
2010,10,11,05,14,7.60
2010,10,11,05,15,7.50
2010,10,11,05,16,7.50
2010,10,11,05,17,7.50
2010,10,11,05,18,7.50
2010,10,11,05,19,7.40
2010,10,11,05,20,7.40
2010,10,11,05,21,7.40
2010,10,11,05,22,7.30
2010,10,11,05,23,7.30
2010,10,11,05,24,7.30
2010,10,11,05,25,7.30
2010,10,11,05,26,7.30
2010,10,11,05,27,7.30
2010,10,11,05,28,7.30
2010,10,11,05,29,7.30
2010,10,11,05,30,7.30
2010,10,11,05,31,7.30
2010,10,11,05,32,7.30
2010,10,11,05,33,7.30
2010,10,11,05,34,7.30
2010,10,11,05,35,7.30
2010,10,11,05,36,7.20
2010,10,11,05,37,7.20
2010,10,11,05,38,7.20
2010,10,11,05,39,7.20
2010,10,11,05,40,7.30
2010,10,11,05,41,7.30
2010,10,11,05,42,7.30
2010,10,11,05,43,7.30
2010,10,11,05,44,7.30
2010,10,11,05,45,7.20
2010,10,11,05,46,7.20
2010,10,11,05,47,7.20
2010,10,11,05,48,7.20
2010,10,11,05,49,7.20
2010,10,11,05,50,7.10
2010,10,11,05,51,7.10
2010,10,11,05,52,7.10
2010,10,11,05,53,7.10
2010,10,11,05,54,7.20
2010,10,11,05,55,7.20
2010,10,11,05,56,7.20
2010,10,11,05,57,7.20
2010,10,11,05,58,7.30
2010,10,11,05,59,7.40
2010,10,11,06,00,7.40
2010,10,11,06,01,7.40
2010,10,11,06,02,7.50
2010,10,11,06,03,7.50
2010,10,11,06,04,7.50
2010,10,11,06,05,7.50
2010,10,11,06,06,7.50
2010,10,11,06,07,7.50
2010,10,11,06,08,7.50
2010,10,11,06,09,7.40
2010,10,11,06,10,7.40
2010,10,11,06,11,7.40
2010,10,11,06,12,7.30
2010,10,11,06,13,7.30
2010,10,11,06,14,7.30
2010,10,11,06,15,7.20
2010,10,11,06,16,7.20
2010,10,11,06,17,7.20
2010,10,11,06,18,7.20
2010,10,11,06,19,7.20
2010,10,11,06,20,7.20
2010,10,11,06,21,7.20
2010,10,11,06,22,7.10
2010,10,11,06,23,7.10
2010,10,11,06,24,7.10
2010,10,11,06,25,7.00
2010,10,11,06,26,7.00
2010,10,11,06,27,7.00
2010,10,11,06,28,6.90
2010,10,11,06,29,6.90
2010,10,11,06,30,6.90
2010,10,11,06,31,6.90
2010,10,11,06,32,6.90
2010,10,11,06,33,6.90
2010,10,11,06,34,7.00
2010,10,11,06,35,7.00
2010,10,11,06,36,7.00
2010,10,11,06,37,7.00
2010,10,11,06,38,7.00
2010,10,11,06,39,7.00
2010,10,11,06,40,7.00
2010,10,11,06,41,7.00
2010,10,11,06,42,7.00
2010,10,11,06,43,6.90
2010,10,11,06,44,6.90
2010,10,11,06,45,6.90
2010,10,11,06,46,6.90
2010,10,11,06,47,6.90
2010,10,11,06,48,6.90
2010,10,11,06,49,6.90
2010,10,11,06,50,6.90
2010,10,11,06,51,6.80
2010,10,11,06,52,6.90
2010,10,11,06,53,6.90
2010,10,11,06,54,6.80
2010,10,11,06,55,6.90
2010,10,11,06,56,6.90
2010,10,11,06,57,6.90
2010,10,11,06,58,6.90
2010,10,11,06,59,6.90
2010,10,11,07,00,6.80
2010,10,11,07,01,6.80
2010,10,11,07,02,6.80
2010,10,11,07,03,6.80
2010,10,11,07,04,6.80
2010,10,11,07,05,6.80
2010,10,11,07,06,6.90
2010,10,11,07,07,6.90
2010,10,11,07,08,7.00
2010,10,11,07,09,7.00
2010,10,11,07,10,7.10
2010,10,11,07,11,7.20
2010,10,11,07,12,7.20
2010,10,11,07,13,7.20
2010,10,11,07,14,7.20
2010,10,11,07,15,7.20
2010,10,11,07,16,7.10
2010,10,11,07,17,7.10
2010,10,11,07,18,7.00
2010,10,11,07,19,6.90
2010,10,11,07,20,6.80
2010,10,11,07,21,6.80
2010,10,11,07,22,6.70
2010,10,11,07,23,6.60
2010,10,11,07,24,6.60
2010,10,11,07,25,6.50
2010,10,11,07,26,6.50
2010,10,11,07,27,6.40
2010,10,11,07,28,6.40
2010,10,11,07,29,6.40
2010,10,11,07,30,6.40
2010,10,11,07,31,6.40
2010,10,11,07,32,6.40
2010,10,11,07,33,6.40
2010,10,11,07,34,6.30
2010,10,11,07,35,6.30
2010,10,11,07,36,6.30
2010,10,11,07,37,6.30
2010,10,11,07,38,6.30
2010,10,11,07,39,6.30
2010,10,11,07,40,6.30
2010,10,11,07,41,6.30
2010,10,11,07,42,6.30
2010,10,11,07,43,6.30
2010,10,11,07,44,6.30
2010,10,11,07,45,6.30
2010,10,11,07,46,6.30
2010,10,11,07,47,6.40
2010,10,11,07,48,6.50
2010,10,11,07,49,6.50
2010,10,11,07,50,6.60
2010,10,11,07,51,6.60
2010,10,11,07,52,6.70
2010,10,11,07,53,6.80
2010,10,11,07,54,6.90
2010,10,11,07,55,7.00
2010,10,11,07,56,7.10
2010,10,11,07,57,7.20
2010,10,11,07,58,7.30
2010,10,11,07,59,7.30
2010,10,11,08,00,7.30
2010,10,11,08,01,7.40
2010,10,11,08,02,7.40
2010,10,11,08,03,7.50
2010,10,11,08,04,7.60
2010,10,11,08,05,7.70
2010,10,11,08,06,7.70
2010,10,11,08,07,7.70
2010,10,11,08,08,7.80
2010,10,11,08,09,7.80
2010,10,11,08,10,7.90
2010,10,11,08,11,7.90
2010,10,11,08,12,8.00
2010,10,11,08,13,8.00
2010,10,11,08,14,8.10
2010,10,11,08,15,8.10
2010,10,11,08,16,8.20
2010,10,11,08,17,8.30
2010,10,11,08,18,8.30
2010,10,11,08,19,8.40
2010,10,11,08,20,8.40
2010,10,11,08,21,8.50
2010,10,11,08,22,8.50
2010,10,11,08,23,8.60
2010,10,11,08,24,8.70
2010,10,11,08,25,8.70
2010,10,11,08,26,8.80
2010,10,11,08,27,8.80
2010,10,11,08,28,8.90
2010,10,11,08,29,8.90
2010,10,11,08,30,9.00
2010,10,11,08,31,9.10
2010,10,11,08,32,9.10
2010,10,11,08,33,9.10
2010,10,11,08,34,9.10
2010,10,11,08,35,9.10
2010,10,11,08,36,9.10
2010,10,11,08,37,9.20
2010,10,11,08,38,9.20
2010,10,11,08,39,9.20
2010,10,11,08,40,9.20
2010,10,11,08,41,9.30
2010,10,11,08,42,9.30
2010,10,11,08,43,9.30
2010,10,11,08,44,9.30
2010,10,11,08,45,9.30
2010,10,11,08,46,9.40
2010,10,11,08,47,9.40
2010,10,11,08,48,9.40
2010,10,11,08,49,9.50
2010,10,11,08,50,9.50
2010,10,11,08,51,9.50
2010,10,11,08,52,9.50
2010,10,11,08,53,9.50
2010,10,11,08,54,9.50
2010,10,11,08,55,9.50
2010,10,11,08,56,9.40
2010,10,11,08,57,9.40
2010,10,11,08,58,9.40
2010,10,11,08,59,9.50
2010,10,11,09,00,9.50
2010,10,11,09,01,9.50
2010,10,11,09,02,9.60
2010,10,11,09,03,9.60
2010,10,11,09,04,9.70
2010,10,11,09,05,9.80
2010,10,11,09,06,9.90
2010,10,11,09,07,9.90
2010,10,11,09,08,10.00
2010,10,11,09,09,10.00
2010,10,11,09,10,10.10
2010,10,11,09,11,10.10
2010,10,11,09,12,10.20
2010,10,11,09,13,10.20
2010,10,11,09,14,10.20
2010,10,11,09,15,10.30
2010,10,11,09,16,10.30
2010,10,11,09,17,10.40
2010,10,11,09,18,10.40
2010,10,11,09,19,10.50
2010,10,11,09,20,10.60
2010,10,11,09,21,10.60
2010,10,11,09,22,10.60
2010,10,11,09,23,10.60
2010,10,11,09,24,10.60
2010,10,11,09,25,10.60
2010,10,11,09,26,10.60
2010,10,11,09,27,10.70
2010,10,11,09,28,10.70
2010,10,11,09,29,10.70
2010,10,11,09,30,10.80
2010,10,11,09,31,10.80
2010,10,11,09,32,10.80
2010,10,11,09,33,10.80
2010,10,11,09,34,10.90
2010,10,11,09,35,10.90
2010,10,11,09,36,11.00
2010,10,11,09,37,11.00
2010,10,11,09,38,11.00
2010,10,11,09,39,11.10
2010,10,11,09,40,11.10
2010,10,11,09,41,11.10
2010,10,11,09,42,11.10
2010,10,11,09,43,11.10
2010,10,11,09,44,11.10
2010,10,11,09,45,11.20
2010,10,11,09,46,11.20
2010,10,11,09,47,11.20
2010,10,11,09,48,11.30
2010,10,11,09,49,11.30
2010,10,11,09,50,11.30
2010,10,11,09,51,11.30
2010,10,11,09,52,11.30
2010,10,11,09,53,11.30
2010,10,11,09,54,11.30
2010,10,11,09,55,11.30
2010,10,11,09,56,11.30
2010,10,11,09,57,11.30
2010,10,11,09,58,11.40
2010,10,11,09,59,11.40
2010,10,11,10,00,11.40
2010,10,11,10,01,11.30
2010,10,11,10,02,11.30
2010,10,11,10,03,11.30
2010,10,11,10,04,11.20
2010,10,11,10,05,11.20
2010,10,11,10,06,11.20
2010,10,11,10,07,11.10
2010,10,11,10,08,11.10
2010,10,11,10,09,11.10
2010,10,11,10,10,11.10
2010,10,11,10,11,11.10
2010,10,11,10,12,11.10
2010,10,11,10,13,11.00
2010,10,11,10,14,11.00
2010,10,11,10,15,11.00
2010,10,11,10,16,11.00
2010,10,11,10,17,11.10
2010,10,11,10,18,11.10
2010,10,11,10,19,11.20
2010,10,11,10,20,11.30
2010,10,11,10,21,11.40
2010,10,11,10,22,11.50
2010,10,11,10,23,11.60
2010,10,11,10,24,11.70
2010,10,11,10,25,11.80
2010,10,11,10,26,11.90
2010,10,11,10,27,11.90
2010,10,11,10,28,12.00
2010,10,11,10,29,12.00
2010,10,11,10,30,12.10
2010,10,11,10,31,12.10
2010,10,11,10,32,12.20
2010,10,11,10,33,12.20
2010,10,11,10,34,12.30
2010,10,11,10,35,12.30
2010,10,11,10,36,12.40
2010,10,11,10,37,12.40
2010,10,11,10,38,12.50
2010,10,11,10,39,12.60
2010,10,11,10,40,12.60
2010,10,11,10,41,12.60
2010,10,11,10,42,12.70
2010,10,11,10,43,12.80
2010,10,11,10,44,12.80
2010,10,11,10,45,12.90
2010,10,11,10,46,12.90
2010,10,11,10,47,13.00
2010,10,11,10,48,13.00
2010,10,11,10,49,13.00
2010,10,11,10,50,13.00
2010,10,11,10,51,12.90
2010,10,11,10,52,12.80
2010,10,11,10,53,12.80
2010,10,11,10,54,12.80
2010,10,11,10,55,12.80
2010,10,11,10,56,12.80
2010,10,11,10,57,12.90
2010,10,11,10,58,12.90
2010,10,11,10,59,12.80
2010,10,11,11,00,12.70
2010,10,11,11,01,12.60
2010,10,11,11,02,12.60
2010,10,11,11,03,12.60
2010,10,11,11,04,12.60
2010,10,11,11,05,12.50
2010,10,11,11,06,12.50
2010,10,11,11,07,12.50
2010,10,11,11,08,12.60
2010,10,11,11,09,12.60
2010,10,11,11,10,12.60
2010,10,11,11,11,12.60
2010,10,11,11,12,12.60
2010,10,11,11,13,12.70
2010,10,11,11,14,12.70
2010,10,11,11,15,12.80
2010,10,11,11,16,12.80
2010,10,11,11,17,12.80
2010,10,11,11,18,12.80
2010,10,11,11,19,12.70
2010,10,11,11,20,12.70
2010,10,11,11,21,12.70
2010,10,11,11,22,12.60
2010,10,11,11,23,12.60
2010,10,11,11,24,12.50
2010,10,11,11,25,12.40
2010,10,11,11,26,12.40
2010,10,11,11,27,12.30
2010,10,11,11,28,12.30
2010,10,11,11,29,12.30
2010,10,11,11,30,12.30
2010,10,11,11,31,12.30
2010,10,11,11,32,12.30
2010,10,11,11,33,12.30
2010,10,11,11,34,12.30
2010,10,11,11,35,12.30
2010,10,11,11,36,12.30
2010,10,11,11,37,12.30
2010,10,11,11,38,12.40
2010,10,11,11,39,12.40
2010,10,11,11,40,12.40
2010,10,11,11,41,12.40
2010,10,11,11,42,12.40
2010,10,11,11,43,12.50
2010,10,11,11,44,12.50
2010,10,11,11,45,12.60
2010,10,11,11,46,12.50
2010,10,11,11,47,12.50
2010,10,11,11,48,12.50
2010,10,11,11,49,12.60
2010,10,11,11,50,12.50
2010,10,11,11,51,12.50
2010,10,11,11,52,12.40
2010,10,11,11,53,12.40
2010,10,11,11,54,12.40
2010,10,11,11,55,12.40
2010,10,11,11,56,12.40
2010,10,11,11,57,12.40
2010,10,11,11,58,12.40
2010,10,11,11,59,12.40
2010,10,11,12,00,12.40
2010,10,11,12,01,12.40
2010,10,11,12,02,12.40
2010,10,11,12,03,12.40
2010,10,11,12,04,12.40
2010,10,11,12,05,12.40
2010,10,11,12,06,12.40
2010,10,11,12,07,12.40
2010,10,11,12,08,12.50
2010,10,11,12,09,12.50
2010,10,11,12,10,12.50
2010,10,11,12,11,12.60
2010,10,11,12,12,12.60
2010,10,11,12,13,12.60
2010,10,11,12,14,12.60
2010,10,11,12,15,12.60
2010,10,11,12,16,12.60
2010,10,11,12,17,12.70
2010,10,11,12,18,12.70
2010,10,11,12,19,12.70
2010,10,11,12,20,12.70
2010,10,11,12,21,12.70
2010,10,11,12,22,12.70
2010,10,11,12,23,12.80
2010,10,11,12,24,12.80
2010,10,11,12,25,12.80
2010,10,11,12,26,12.80
2010,10,11,12,27,12.80
2010,10,11,12,28,12.80
2010,10,11,12,29,12.80
2010,10,11,12,30,12.80
2010,10,11,12,31,12.90
2010,10,11,12,32,12.90
2010,10,11,12,33,12.90
2010,10,11,12,34,12.90
2010,10,11,12,35,12.90
2010,10,11,12,36,12.90
2010,10,11,12,37,13.00
2010,10,11,12,38,13.00
2010,10,11,12,39,13.00
2010,10,11,12,40,13.10
2010,10,11,12,41,13.10
2010,10,11,12,42,13.20
2010,10,11,12,43,13.20
2010,10,11,12,44,13.30
2010,10,11,12,45,13.30
2010,10,11,12,46,13.30
2010,10,11,12,47,13.30
2010,10,11,12,48,13.30
2010,10,11,12,49,13.30
2010,10,11,12,50,13.30
2010,10,11,12,51,13.30
2010,10,11,12,52,13.30
2010,10,11,12,53,13.30
2010,10,11,12,54,13.30
2010,10,11,12,55,13.30
2010,10,11,12,56,13.30
2010,10,11,12,57,13.30
2010,10,11,12,58,13.30
2010,10,11,12,59,13.30
2010,10,11,13,00,13.30
2010,10,11,13,01,13.30
2010,10,11,13,02,13.30
2010,10,11,13,03,13.30
2010,10,11,13,04,13.30
2010,10,11,13,05,13.30
2010,10,11,13,06,13.30
2010,10,11,13,07,13.30
2010,10,11,13,08,13.40
2010,10,11,13,09,13.40
2010,10,11,13,10,13.40
2010,10,11,13,11,13.40
2010,10,11,13,12,13.40
2010,10,11,13,13,13.40
2010,10,11,13,14,13.40
2010,10,11,13,15,13.40
2010,10,11,13,16,13.40
2010,10,11,13,17,13.50
2010,10,11,13,18,13.50
2010,10,11,13,19,13.60
2010,10,11,13,20,13.60
2010,10,11,13,21,13.70
2010,10,11,13,22,13.70
2010,10,11,13,23,13.70
2010,10,11,13,24,13.70
2010,10,11,13,25,13.70
2010,10,11,13,26,13.70
2010,10,11,13,27,13.70
2010,10,11,13,28,13.70
2010,10,11,13,29,13.70
2010,10,11,13,30,13.70
2010,10,11,13,31,13.80
2010,10,11,13,32,13.80
2010,10,11,13,33,13.70
2010,10,11,13,34,13.70
2010,10,11,13,35,13.70
2010,10,11,13,36,13.60
2010,10,11,13,37,13.60
2010,10,11,13,38,13.60
2010,10,11,13,39,13.60
2010,10,11,13,40,13.60
2010,10,11,13,41,13.60
2010,10,11,13,42,13.60
2010,10,11,13,43,13.60
2010,10,11,13,44,13.60
2010,10,11,13,45,13.60
2010,10,11,13,46,13.60
2010,10,11,13,47,13.50
2010,10,11,13,48,13.50
2010,10,11,13,49,13.50
2010,10,11,13,50,13.50
2010,10,11,13,51,13.60
2010,10,11,13,52,13.60
2010,10,11,13,53,13.60
2010,10,11,13,54,13.60
2010,10,11,13,55,13.60
2010,10,11,13,56,13.60
2010,10,11,13,57,13.60
2010,10,11,13,58,13.70
2010,10,11,13,59,13.70
2010,10,11,14,00,13.70
2010,10,11,14,01,13.70
2010,10,11,14,02,13.80
2010,10,11,14,03,13.80
2010,10,11,14,04,13.80
2010,10,11,14,05,13.80
2010,10,11,14,06,13.80
2010,10,11,14,07,13.80
2010,10,11,14,08,13.80
2010,10,11,14,09,13.80
2010,10,11,14,10,13.80
2010,10,11,14,11,13.70
2010,10,11,14,12,13.70
2010,10,11,14,13,13.70
2010,10,11,14,14,13.70
2010,10,11,14,15,13.70
2010,10,11,14,16,13.70
2010,10,11,14,17,13.80
2010,10,11,14,18,13.80
2010,10,11,14,19,13.90
2010,10,11,14,20,14.00
2010,10,11,14,21,14.00
2010,10,11,14,22,14.10
2010,10,11,14,23,14.00
2010,10,11,14,24,14.00
2010,10,11,14,25,14.00
2010,10,11,14,26,14.00
2010,10,11,14,27,14.00
2010,10,11,14,28,14.00
2010,10,11,14,29,14.10
2010,10,11,14,30,14.10
2010,10,11,14,31,14.00
2010,10,11,14,32,13.90
2010,10,11,14,33,13.90
2010,10,11,14,34,13.80
2010,10,11,14,35,13.80
2010,10,11,14,36,13.90
2010,10,11,14,37,13.90
2010,10,11,14,38,13.90
2010,10,11,14,39,13.90
2010,10,11,14,40,13.80
2010,10,11,14,41,13.80
2010,10,11,14,42,13.70
2010,10,11,14,43,13.70
2010,10,11,14,44,13.70
2010,10,11,14,45,13.70
2010,10,11,14,46,13.70
2010,10,11,14,47,13.70
2010,10,11,14,48,13.70
2010,10,11,14,49,13.70
2010,10,11,14,50,13.70
2010,10,11,14,51,13.60
2010,10,11,14,52,13.60
2010,10,11,14,53,13.60
2010,10,11,14,54,13.60
2010,10,11,14,55,13.50
2010,10,11,14,56,13.50
2010,10,11,14,57,13.40
2010,10,11,14,58,13.40
2010,10,11,14,59,13.30
2010,10,11,15,00,13.30
2010,10,11,15,01,13.30
2010,10,11,15,02,13.30
2010,10,11,15,03,13.30
2010,10,11,15,04,13.30
2010,10,11,15,05,13.30
2010,10,11,15,06,13.30
2010,10,11,15,07,13.30
2010,10,11,15,08,13.30
2010,10,11,15,09,13.30
2010,10,11,15,10,13.30
2010,10,11,15,11,13.40
2010,10,11,15,12,13.40
2010,10,11,15,13,13.40
2010,10,11,15,14,13.40
2010,10,11,15,15,13.40
2010,10,11,15,16,13.40
2010,10,11,15,17,13.40
2010,10,11,15,18,13.40
2010,10,11,15,19,13.40
2010,10,11,15,20,13.40
2010,10,11,15,21,13.40
2010,10,11,15,22,13.40
2010,10,11,15,23,13.40
2010,10,11,15,24,13.40
2010,10,11,15,25,13.40
2010,10,11,15,26,13.40
2010,10,11,15,27,13.40
2010,10,11,15,28,13.40
2010,10,11,15,29,13.40
2010,10,11,15,30,13.40
2010,10,11,15,31,13.40
2010,10,11,15,32,13.40
2010,10,11,15,33,13.40
2010,10,11,15,34,13.40
2010,10,11,15,35,13.40
2010,10,11,15,36,13.40
2010,10,11,15,37,13.40
2010,10,11,15,38,13.40
2010,10,11,15,39,13.30
2010,10,11,15,40,13.30
2010,10,11,15,41,13.30
2010,10,11,15,42,13.20
2010,10,11,15,43,13.20
2010,10,11,15,44,13.10
2010,10,11,15,45,13.10
2010,10,11,15,46,13.00
2010,10,11,15,47,12.90
2010,10,11,15,48,12.90
2010,10,11,15,49,12.80
2010,10,11,15,50,12.80
2010,10,11,15,51,12.80
2010,10,11,15,52,12.70
2010,10,11,15,53,12.70
2010,10,11,15,54,12.60
2010,10,11,15,55,12.60
2010,10,11,15,56,12.60
2010,10,11,15,57,12.60
2010,10,11,15,58,12.50
2010,10,11,15,59,12.50
2010,10,11,16,00,12.50
2010,10,11,16,01,12.50
2010,10,11,16,02,12.50
2010,10,11,16,03,12.50
2010,10,11,16,04,12.50
2010,10,11,16,05,12.50
2010,10,11,16,06,12.50
2010,10,11,16,07,12.50
2010,10,11,16,08,12.50
2010,10,11,16,09,12.50
2010,10,11,16,10,12.60
2010,10,11,16,11,12.60
2010,10,11,16,12,12.60
2010,10,11,16,13,12.60
2010,10,11,16,14,12.60
2010,10,11,16,15,12.60
2010,10,11,16,16,12.60
2010,10,11,16,17,12.60
2010,10,11,16,18,12.60
2010,10,11,16,19,12.60
2010,10,11,16,20,12.60
2010,10,11,16,21,12.60
2010,10,11,16,22,12.60
2010,10,11,16,23,12.60
2010,10,11,16,24,12.60
2010,10,11,16,25,12.60
2010,10,11,16,26,12.60
2010,10,11,16,27,12.60
2010,10,11,16,28,12.60
2010,10,11,16,29,12.60
2010,10,11,16,30,12.60
2010,10,11,16,31,12.60
2010,10,11,16,32,12.60
2010,10,11,16,33,12.60
2010,10,11,16,34,12.60
2010,10,11,16,35,12.60
2010,10,11,16,36,12.60
2010,10,11,16,37,12.60
2010,10,11,16,38,12.60
2010,10,11,16,39,12.60
2010,10,11,16,40,12.60
2010,10,11,16,41,12.60
2010,10,11,16,42,12.60
2010,10,11,16,43,12.60
2010,10,11,16,44,12.60
2010,10,11,16,45,12.60
2010,10,11,16,46,12.60
2010,10,11,16,47,12.60
2010,10,11,16,48,12.60
2010,10,11,16,49,12.60
2010,10,11,16,50,12.60
2010,10,11,16,51,12.60
2010,10,11,16,52,12.50
2010,10,11,16,53,12.50
2010,10,11,16,54,12.50
2010,10,11,16,55,12.50
2010,10,11,16,56,12.50
2010,10,11,16,57,12.50
2010,10,11,16,58,12.40
2010,10,11,16,59,12.40
2010,10,11,17,00,12.40
2010,10,11,17,01,12.40
2010,10,11,17,02,12.40
2010,10,11,17,03,12.40
2010,10,11,17,04,12.40
2010,10,11,17,05,12.30
2010,10,11,17,06,12.30
2010,10,11,17,07,12.30
2010,10,11,17,08,12.30
2010,10,11,17,09,12.30
2010,10,11,17,10,12.30
2010,10,11,17,11,12.30
2010,10,11,17,12,12.30
2010,10,11,17,13,12.30
2010,10,11,17,14,12.30
2010,10,11,17,15,12.30
2010,10,11,17,16,12.30
2010,10,11,17,17,12.30
2010,10,11,17,18,12.20
2010,10,11,17,19,12.20
2010,10,11,17,20,12.20
2010,10,11,17,21,12.20
2010,10,11,17,22,12.20
2010,10,11,17,23,12.20
2010,10,11,17,24,12.30
2010,10,11,17,25,12.30
2010,10,11,17,26,12.30
2010,10,11,17,27,12.30
2010,10,11,17,28,12.30
2010,10,11,17,29,12.30
2010,10,11,17,30,12.30
2010,10,11,17,31,12.30
2010,10,11,17,32,12.30
2010,10,11,17,33,12.30
2010,10,11,17,34,12.30
2010,10,11,17,35,12.30
2010,10,11,17,36,12.30